www.pogodaiklimat.ru

Погода и климат >> Архив погоды >> Греция >> Салоники


ПОГОДА в Салониках

  • Прогноз погоды в Салониках
  • Монитор погоды в Салониках

АРХИВ ПОГОДЫ в Салониках

Время (UTC), дата Ветер
(напр.,м/с)
 
Видим.   Явления Облачность Т
(С)
Тd
(С)
f
(%)
Тe
(С)
Тes
(С)
Комфортность P
(гПа)
Po
(гПа)
Тmin
(С)
Tmax
(С)
R
(мм)
R24
(мм)
S
(см)
12 14.03 В 4
{7}
10 км 9/6 240 м
[St Ac trans]
+9.4 +6.4 82 +7 +8 1011.5 1010.5
15 14.03 В 3
{5}
10 км в посл. час дождь 9/5 360 м
[St Ac As]
+11.0 +5.9 71 +9 +10 1009.8 1008.7
18 14.03 штиль 0
{5}
10 км {дождь} 9/6 360 м
[St Ac As]
+9.2 +6.2 81 +8 +8 1009.9 1008.9 +11.0 0.0
21 14.03 З 3
{5}
10 км 8/5 300 м
[St Ac As]
+9.0 +6.4 84 +6 +6 1009.6 1008.6
00 15.03 нст 1
{3}
10 км {дождь} 8/5 300 м
[St Ac As]
+8.6 +6.5 87 +9 +9 1008.7 1007.6 0.0
03 15.03 СЗ 4
{7}
10 км {дождь} 9/6 300 м
[St Ac As]
+8.2 +6.9 92 +5 +5 1008.0 1007.0
06 15.03 С 3
{4}
10 км {дождь} 10/6 240 м
[Frnb Ac As]
+8.4 +3.3 70 +6 +6 1008.9 1007.8 +8.2 0.0
09 15.03 СЗ 4
{6}
10 км 9/5 240 м
[St Ac As]
+10.2 +2.2 58 +8 +9 1010.2 1009.1
12 15.03 ЮЗ 5
{7}
10 км 8/3 600 м
[Cu hum Ac und Ci fib]
+14.0 +2.3 45 +12 +15 1009.1 1008.0
15 15.03 З 3
{8}
10 км 4/3 600 м
[Cu hum Ci fib]
+16.0 +0.3 34 +16 +17 1008.9 1007.9
18 15.03 ЮЗ 4
{5}
10 км 4/0
[Ci fib]
+11.0 +4.3 63 +9 +9 1011.1 1010.0 +16.0
21 15.03 В 2
{6}
10 км 1/0
[Ac trans Ci fib]
+11.0 +4.9 66 +10 +10 1012.9 1011.8
00 16.03 Ю 2
{3}
10 км 1/0
[Ac trans Ci fib]
+6.4 +1.4 70 +5 +5 1013.5 1012.5
03 16.03 В 3
{4}
10 км 1/0
[Ci fib]
+3.4 +0.2 80 -1 -1 1014.6 1013.5
06 16.03 В 3
{5}
10 км 1/0
[Ci fib]
+4.8 +0.1 72 +1 +3 1014.7 1013.6 +3.2 200
09 16.03 СЗ 3
{5}
10 км 1/0
[Ci fib]
+13.8 +2.6 47 +13 +23 1015.3 1014.2
12 16.03 нст 2
{5}
10 км 8/0
[Ci fib]
+16.6 +1.9 37 +17 +27 1013.3 1012.2
15 16.03 нст 2
{6}
10 км 8/0
[Ci fib]
+19.8 +1.5 29 +21 +22 комфорт 1012.5 1011.5
18 16.03 нст 2
{6}
10 км 5/0
[Cs]
+15.6 +3.4 44 +16 +16 1014.0 1013.0 +19.8
21 16.03 нст 2
{4}
10 км 3/0
[Cs]
+11.6 +5.1 64 +11 +11 1015.8 1014.8
00 17.03 В 3
{4}
10 км 3/0
[Cs]
+8.6 +3.5 70 +6 +6 1015.9 1014.9
03 17.03 нст 1
{3}
10 км 3/0
[Cs]
+8.4 +3.8 73 +8 +8 1016.0 1015.0
06 17.03 нст 2
{3}
10 км 3/0
[Cs]
+7.0 +2.1 71 +6 +7 1016.9 1015.8 +6.4
09 17.03 З 2
{4}
10 км ясно +14.0 +5.6 57 +14 +24 1017.5 1016.5
12 17.03 нст 2
{4}
10 км ясно +20.6 +2.9 31 +22 +33 комфорт 1015.9 1014.9
15 17.03 Ю 6
{9}
10 км 3/0
[Ci fib]
+23.0 +1.2 24 +22 +23 комфорт 1014.5 1013.5
18 17.03 нст 1
{8}
10 км 1/0
[Ci fib]
+17.0 +7.0 52 +18 +18 1014.9 1013.8 +23.0
21 17.03 нст 2
{4}
10 км 1/0
[Ci fib]
+11.8 +8.2 79 +11 +11 1015.3 1014.2
00 18.03 нст 2
{3}
10 км 1/0
[Ci fib]
+9.2 +6.2 81 +8 +8 1015.3 1014.2
03 18.03 В 4
{4}
10 км 1/0
[Ci fib]
+7.0 +4.7 85 +4 +4 1015.0 1013.9
06 18.03 нст 1
{4}
10 км ясно +8.0 +4.3 77 +8 +11 1015.6 1014.6 +7.0 220
09 18.03 З 3
{4}
10 км ясно +14.2 +9.1 71 +13 +23 1015.5 1014.5
12 18.03 СЗ 4
{5}
10 км ясно +17.4 +8.5 56 +17 +25 1014.0 1013.0
15 18.03 Ю 6
{9}
10 км 1/1 600 м
[Cu hum]
+20.6 +10.8 53 +22 +23 комфорт 1012.3 1011.4
18 18.03 нст 2
{8}
10 км 3/3 300 м
[St]
+14.6 +12.4 87 +15 +15 1014.0 1013.0 +20.6
21 18.03 нст 2
{5}
8000 м дымка 6/6 100 м
[St]
+12.0 +10.8 92 +11 +11 1015.1 1014.0
03 19.03 нст 1
{4}
4000 м дымка 6/6 100 м
[St]
+11.4 +10.2 92 +11 +11 1015.2 1014.2
06 19.03 В 3
{4}
4000 м дымка 5/5 50 м
[St]
+10.8 +10.2 96 +9 +9 1016.3 1015.3 +10.8 210
09 19.03 З 4
{7}
10 км 3/3 600 м
[Cu hum]
+13.4 +10.7 84 +12 +18 1016.6 1015.5
12 19.03 З 3
{5}
10 км 3/3 600 м
[Cu hum]
+18.6 +9.1 54 +19 +26 1015.5 1014.6
15 19.03 Ю 6
{8}
10 км 3/3 600 м
[Cu hum Ci fib]
+20.4 +9.6 50 +22 +22 комфорт 1014.9 1013.9
18 19.03 ЮВ 3
{8}
10 км 3/3 600 м
[Cu hum Ci fib]
+14.6 +10.8 78 +14 +14 1017.3 1016.2 +20.4
21 19.03 нст 1
{5}
10 км 3/3 600 м
[Cu hum Ci fib]
+12.8 +10.9 88 +13 +13 1018.6 1017.5
00 20.03 нст 1
{4}
10 км 3/3 300 м
[St]
+12.2 +11.1 93 +12 +12 1019.3 1018.2
03 20.03 ЮВ 2
{4}
4000 м дымка 4/4 200 м
[St]
+9.6 +8.4 92 +8 +8 1019.2 1018.2
06 20.03 нст 1
{3}
100 м туман ?/? +10.4 +10.0 97 +10 +10 1021.1 1020.0 +9.6 210
09 20.03 СЗ 3
{5}
1500 м дымка {туман} 3/3 100 м
[St]
+13.8 +9.9 77 +13 +20 1022.3 1021.3
12 20.03 ЮЗ 4
{7}
10 км {туман} 3/3 600 м
[Cu hum]
+20.0 +9.1 49 +21 +27 комфорт 1021.5 1020.5
15 20.03 Ю 4
{8}
10 км 6/3 750 м
[Cu hum Ac cuf Ci fib]
+19.6 +8.6 49 +21 +21 комфорт 1021.3 1020.2
18 20.03 С 4
{8}
10 км слаб. дождь {гроза} 8/6 540 м
[Cu Sc Ac cuf Ci fib]
+16.0 +9.5 65 +15 +15 1023.2 1022.2 +20.4 0.0
21 20.03 З 2
{5}
10 км {дождь} 8/3 750 м
[Cu med, cong Ac cuf Ci fib]
+14.6 +8.7 68 +14 +14 1024.9 1023.8
00 21.03 В 6
{9}
10 км {дождь} 8/3 750 м
[Cu med, cong Ac cuf Ci fib]
+15.0 +7.4 60 +13 +13 1026.2 1025.1 0.0
03 21.03 нст 1
{5}
10 км 4/1 750 м
[Cu hum Ac cuf]
+13.4 +7.3 67 +14 +14 1027.3 1026.2
06 21.03 нст 2
{7}
10 км 4/1 600 м
[Cu hum Ac cuf Cs]
+12.2 +7.7 74 +12 +13 1028.9 1027.8 +12.0 210
09 21.03 З 3
{5}
10 км 3/1 600 м
[Cu hum Cs]
+15.2 +6.1 55 +15 +23 1029.6 1028.6

 

Местоположение метеостанции Салоники (Греция): широта 40.52 долгота 22.97 высота над уровнем моря 4 м.

В архиве по умолчанию представлена погода в Салониках за последнюю неделю. Архивные данные за месяц целиком и за предыдущие месяцы, начиная с января 2011 года, Вы можете получить, выбрав интересующий диапазон дат из раскрывающегося списка и нажав кнопку "Ввод!".


*Определитесь, кто Вы:
робот инопланетянин человек

Внимание! Время в таблицах - всемирное. Для получения местного времени необходимо прибавить поправку, которая равна 2 ч.

Смотрите также архив погоды в соседних городах и на ближайших метеорологических станциях:

Погода в Серре (Греция) (79 км)
Погода в Гевгелии (Македония) (80 км)
Погода в Козани (Греция) (104 км)
Погода в Струмице (Македония) (105 км)
Погода в Ларисе (Греция) (110 км)
Погода в Сандански (Болгария) (114 км)
Погода в Демир-Капия (Македония) (117 км)
Погода в Доксато (Греция) (124 км)
Погода в Берово (Македония) (134 км)
Погода во Флорине (Греция) (136 км)

Пояснения к столбцам:

Ветер - указаны скорость ветра в м/с - средняя за 10 мин, порывы в срок и между сроками (в фигурных скобках) и направление, откуда дует ветер: С - северный, СВ - северо-восточный, В - восточный, ЮВ - юго-восточный, Ю - южный, ЮЗ - юго-западный, З - западный, СЗ - северо-западный.
Видимость - горизонтальная дальность видимости в метрах или километрах. При видимости от 1 до 10 км при отсутствии осадков обычно наблюдается дымка, при ухудшении видимости до 1 км и менее - туман. В сухую погоду видимость может ухудшаться дымом, пылью или мглою.
Явления - указаны атмосферные явления, наблюдавшиеся в срок или в последний час перед сроком; фигурными скобками обозначены явления, наблюдавшиеся между сроками (за 1-3 часа до срока); квадратными скобками обозначены град или гололедные отложения с указанием их диаметра в мм.
Облачность - указаны через наклонную черту общая и нижняя облачность в баллах и высота нижней границы облаков в метрах; квадратными скобками обозначены формы облаков: Ci - перистые, Cs - перисто-слоистые, Cc - перисто-кучевые, Ac - высококучевые, As - высокослоистые, Sc - слоисто-кучевые, Ns - слоисто-дождевые, Cu - кучевые, Cb - кучево-дождевые. Подробнее классификацию облаков см. в Атласе облаков (PDF).
T - Температура воздуха - температура, измеренная на высоте 2 м над землей.
Td - Температура точки росы - температура, при понижении до которой содержащийся в воздухе водяной пар достигнет насыщения.
f - Относительная влажность воздуха - влажноcть воздуха, измеренная на высоте 2 м над землей.
Te - Эффективная температура - температура, которую ощущает одетый по сезону человек в тени. Характеристика душности погоды. При расчете учитывается влияние влажности воздуха и скорости ветра на теплоощущения человека.
Tes - Эффективная температура на солнце - температура, которую ощущает человек, с поправкой на солнечный нагрев. Характеристика знойности погоды. Зависит от высоты солнца над горизонтом, облачности и скорости ветра. Ночью, в пасмурную погоду, а также при ветре 12 м/с и более поправка равна нулю.
P - Атмосферное давление - приведенное к уровню моря атмосферное давление.
Po - Атмосферное давление - измеренное на уровне метеостанции атмосферное давление.
Tmin - Минимальная температура - минимум температуры воздуха на высоте 2 м над землей.
Tmax - Максимальная температура - максимум температуры воздуха на высоте 2 м над землей.
R - Количество осадков - Количество выпавших осадков за период времени, мм. При наведении курсора мыши на число - период времени, за который выпало указанное количество осадков.
R24 - Количество осадков - Количество выпавших осадков за 24 часа, мм.
S - Снежный покров - Высота снежного покрова, см. При наведении курсора мыши на число - состояние снежного покрова и степень покрытия местности в баллах.